NORTHEAST SUFFOLK  -  Rip Current Statement Rip Current Statement        NORTHERN NASSAU  -  Rip Current Statement Rip Current Statement        NORTHERN QUEENS  -  Rip Current Statement Rip Current Statement        NORTHWEST SUFFOLK  -  Rip Current Statement Rip Current Statement        SOUTHEAST SUFFOLK  -  Rip Current Statement Rip Current Statement        SOUTHERN NASSAU  -  Rip Current Statement Rip Current Statement        SOUTHERN QUEENS  -  Rip Current Statement Rip Current Statement        SOUTHWEST SUFFOLK  -  Rip Current Statement Rip Current Statement      

Active alerts

Northern Queens
  Details for Northern Queens Rip Current Statement
Southern Queens
  Details for Southern Queens Rip Current Statement
Northern Nassau
  Details for Northern Nassau Rip Current Statement
Southern Nassau
  Details for Southern Nassau Rip Current Statement
Northwest Suffolk
  Details for Northwest Suffolk Rip Current Statement
Southwest Suffolk
  Details for Southwest Suffolk Rip Current Statement
Northeast Suffolk
  Details for Northeast Suffolk Rip Current Statement
Southeast Suffolk
  Details for Southeast Suffolk Rip Current Statement


WXM80 ListenWXM80 Stop

You find our weather info also at:

UK Metoffice

WeatherCloud

Weather Underground

Northeastern Weather Network

AWEKAS

Citizen Weather Observer Program (CWOP)

HAMweather, WeatherForYou, PWS Weather


Weather Underground History page Text

Daily Summary for November 16, 2017 Units:  Metric    English   Both
« Previous Day
Next Day »
Daily Weekly Monthly Yearly Custom
  High: Low: Average:
Temperature: 13.1 °C 7.7 °C 10.5 °C
Dew Point: 11.7 °C 2.8 °C 6.6 °C
Humidity: 96 % 65 % 77 %
Wind Speed: 21.4 km/h 0 km/h 6.9 km/h
Wind Gust: 35.4 km/h - -
Wind:- - SW
Pressure: 1017.5 hPa 1002.9 hPa -
Precipitation: 15.24 mm    
Historical Graphs
 
 
Tabular Data for November 16, 2017
Time Temperature Dew Point Pressure Wind Wind Speed Wind Gust Humidity Rainfall Rate (Hourly)
00:05 8.1 °C 4.3 °C 1017.2 hPa SE 2.3 km/h 9.3 km/h 77 % 0 mm
00:10 8.2 °C 4.4 °C 1017.2 hPa SE 2.7 km/h 7.4 km/h 77 % 0 mm
00:15 8.2 °C 4.4 °C 1017.2 hPa SE 2.4 km/h 9.3 km/h 77 % 0 mm
00:20 8.2 °C 4.4 °C 1017.2 hPa SE 1.6 km/h 3.7 km/h 77 % 0 mm
00:25 8.3 °C 4.5 °C 1016.8 hPa SE 6 km/h 8 km/h 77 % 0 mm
00:30 8.3 °C 4.6 °C 1016.8 hPa SE 0.3 km/h 11.1 km/h 77 % 0 mm
00:35 8.4 °C 4.6 °C 1016.8 hPa SE 5 km/h 7.4 km/h 77 % 0 mm
00:40 8.4 °C 4.7 °C 1017.5 hPa SE 5.6 km/h 7.4 km/h 77 % 0 mm
00:45 8.5 °C 4.7 °C 1017.2 hPa SSE 5.1 km/h 7.4 km/h 77 % 0 mm
00:50 8.6 °C 4.6 °C 1017.2 hPa SSE 4.5 km/h 11.1 km/h 76 % 0 mm
00:55 8.6 °C 4.8 °C 1017.2 hPa SSE 3.1 km/h 6.4 km/h 77 % 0 mm
01:01 8.6 °C 4.8 °C 1017.2 hPa SE 3.2 km/h 13 km/h 77 % 0 mm
01:06 8.7 °C 4.7 °C 1016.8 hPa SE 4.8 km/h 16.1 km/h 76 % 0 mm
01:11 8.7 °C 4.7 °C 1017.2 hPa SE 3.2 km/h 11.3 km/h 76 % 0 mm
01:16 8.7 °C 4.7 °C 1016.8 hPa Calm   6.4 km/h 76 % 0 mm
01:21 8.8 °C 4.8 °C 1016.5 hPa SSE 1.6 km/h 3.2 km/h 76 % 0 mm
01:26 8.8 °C 4.9 °C 1016.1 hPa Calm   6.4 km/h 77 % 0 mm
01:31 8.8 °C 5 °C 1016.5 hPa South 3.2 km/h 9.7 km/h 77 % 0 mm
01:36 8.8 °C 5 °C 1016.5 hPa SE 4.7 km/h 6.4 km/h 77 % 0 mm
01:41 8.8 °C 5 °C 1016.1 hPa SE 2.6 km/h 6.4 km/h 77 % 0 mm
01:46 8.9 °C 5.1 °C 1016.1 hPa SE 1.6 km/h 6.4 km/h 77 % 0 mm
01:51 8.9 °C 5.1 °C 1016.1 hPa SE 3.2 km/h 11.3 km/h 77 % 0 mm
01:56 8.9 °C 5.1 °C 1016.1 hPa SE 4.8 km/h 11.3 km/h 77 % 0 mm
02:01 8.9 °C 5.1 °C 1016.1 hPa East 2.9 km/h 11.1 km/h 77 % 0 mm
02:06 9 °C 5.2 °C 1016.1 hPa SE 3.2 km/h 11.3 km/h 77 % 0 mm
02:11 9 °C 5.2 °C 1016.1 hPa SE 4.8 km/h 9.7 km/h 77 % 0 mm
02:16 9.1 °C 5.2 °C 1015.8 hPa SE 1.6 km/h 8 km/h 77 % 0 mm
02:21 9.1 °C 5.3 °C 1015.8 hPa SE 4.8 km/h 11.3 km/h 77 % 0 mm
02:26 9.1 °C 5.5 °C 1015.8 hPa ESE 2.4 km/h 5.6 km/h 78 % 0 mm
02:31 9.1 °C 5.5 °C 1015.8 hPa SE 1.6 km/h 6.4 km/h 78 % 0 mm
02:36 9.2 °C 5.5 °C 1015.8 hPa SE 1.6 km/h 11.3 km/h 78 % 0 mm
02:41 9.2 °C 5.6 °C 1015.5 hPa Calm   1.6 km/h 78 % 0 mm
02:46 9.2 °C 5.6 °C 1015.5 hPa Calm   3.2 km/h 78 % 0 mm
02:51 9.2 °C 5.6 °C 1015.5 hPa Calm   1.6 km/h 78 % 0 mm
02:56 9.1 °C 5.5 °C 1015.1 hPa Calm   1.6 km/h 78 % 0 mm
03:01 9.1 °C 5.7 °C 1015.1 hPa Calm     79 % 0 mm
03:06 9.1 °C 5.7 °C 1015.1 hPa Calm   3.2 km/h 79 % 0 mm
03:11 9.1 °C 5.7 °C 1015.1 hPa Calm   3.2 km/h 79 % 0 mm
03:16 9.1 °C 5.6 °C 1014.8 hPa SE 1 km/h 5.6 km/h 79 % 0 mm
03:21 9.1 °C 5.6 °C 1014.8 hPa SE 3.1 km/h 5.6 km/h 79 % 0 mm
03:26 9.1 °C 5.6 °C 1014.4 hPa SE 1.6 km/h 9.7 km/h 79 % 0 mm
03:31 9.1 °C 5.8 °C 1014.4 hPa SE 1.6 km/h 6.4 km/h 80 % 0 mm
03:36 9.1 °C 5.8 °C 1014.4 hPa SE 3.2 km/h 6.4 km/h 80 % 0 mm
03:41 9.1 °C 5.8 °C 1014.4 hPa SSE 4.8 km/h 8 km/h 80 % 0 mm
03:46 9.2 °C 6.1 °C 1014.1 hPa SSE 3.2 km/h 8 km/h 81 % 0 mm
03:51 9.2 °C 6.1 °C 1014.1 hPa SE 4.8 km/h 9.7 km/h 81 % 0 mm
03:56 9.3 °C 6.2 °C 1014.1 hPa SE 1.6 km/h 9.7 km/h 81 % 0 mm
04:01 9.3 °C 6.4 °C 1013.8 hPa SSE 3.7 km/h 5.6 km/h 82 % 0 mm
04:06 9.5 °C 6.6 °C 1013.8 hPa SE 4 km/h 9.7 km/h 82 % 0 mm
04:11 9.7 °C 6.7 °C 1013.8 hPa SE 3.7 km/h 7.4 km/h 82 % 0 mm
04:16 9.7 °C 6.8 °C 1013.8 hPa SSE 2.6 km/h 5.6 km/h 82 % 0 mm
04:21 9.8 °C 6.8 °C 1013.8 hPa SE 3.7 km/h 5.6 km/h 82 % 0 mm
04:26 9.9 °C 7 °C 1013.8 hPa SE 9 km/h 14.8 km/h 82 % 0 mm
04:36 10.3 °C 7.2 °C 1013.4 hPa SE 8.9 km/h 22.2 km/h 81 % 0 mm
04:41 10.5 °C 7.2 °C 1013.1 hPa SE 10.6 km/h 11.3 km/h 80 % 0 mm
04:47 10.7 °C 7.3 °C 1013.1 hPa SSE 2.9 km/h 18.5 km/h 80 % 0 mm
04:52 10.8 °C 7.4 °C 1013.1 hPa SSE 5.3 km/h 16.7 km/h 80 % 0 mm
04:57 10.8 °C 7.3 °C 1013.1 hPa SE 5.3 km/h 9.7 km/h 79 % 0 mm
05:02 10.8 °C 7.3 °C 1012.8 hPa SSE 5.1 km/h 11.1 km/h 79 % 0 mm
05:07 10.9 °C 7.6 °C 1012.8 hPa SSE 8 km/h 14.8 km/h 80 % 0 mm
05:17 10.9 °C 7.6 °C 1012.8 hPa South 10.8 km/h 18.5 km/h 80 % 0 mm
05:22 11 °C 7.5 °C 1012.8 hPa SSE 5 km/h 16.7 km/h 79 % 0 mm
05:27 11.1 °C 7.6 °C 1012.8 hPa SE 11.1 km/h 19.3 km/h 79 % 0 mm
05:32 11.1 °C 7.6 °C 1012.8 hPa SSE 16.3 km/h 19.3 km/h 79 % 0 mm
05:37 11.1 °C 7.6 °C 1012.4 hPa SSE 8.4 km/h 17.7 km/h 79 % 0 mm
05:42 11.1 °C 7.6 °C 1012.1 hPa SSE 6.4 km/h 16.7 km/h 79 % 0 mm
05:47 11.1 °C 7.6 °C 1012.1 hPa SE 8 km/h 12.9 km/h 79 % 0 mm
05:52 11.1 °C 7.6 °C 1012.1 hPa SE 2.3 km/h 9.3 km/h 79 % 0 mm
05:57 11.1 °C 7.6 °C 1012.1 hPa SSE 11.7 km/h 18.5 km/h 79 % 0 mm
06:02 11.1 °C 7.6 °C 1012.1 hPa SSE 8.4 km/h 11.3 km/h 79 % 0 mm
06:07 11.2 °C 7.7 °C 1012.1 hPa SSE 6.1 km/h 9.3 km/h 79 % 0 mm
06:12 11.2 °C 7.7 °C 1012.1 hPa South 8.4 km/h 14.8 km/h 79 % 0 mm
06:17 11.2 °C 7.7 °C 1012.1 hPa SE 8 km/h 14.5 km/h 79 % 0 mm
06:22 11.2 °C 7.7 °C 1011.7 hPa SE 4.3 km/h 11.3 km/h 79 % 0 mm
06:27 11.3 °C 7.8 °C 1012.1 hPa SSE 4 km/h 5.6 km/h 79 % 0 mm
06:32 11.3 °C 7.8 °C 1011.7 hPa SSE 7.9 km/h 13 km/h 79 % 0 mm
06:37 11.3 °C 8 °C 1011.7 hPa SSW 3.1 km/h 9.3 km/h 80 % 0 mm
06:42 11.3 °C 8 °C 1011.7 hPa Calm   5.6 km/h 80 % 0 mm
06:47 11.3 °C 8.2 °C 1011.4 hPa SE 1.9 km/h 14.8 km/h 81 % 0 mm
06:52 11.4 °C 8.4 °C 1011.4 hPa SSE 8.2 km/h 11.1 km/h 82 % 0 mm
06:58 11.4 °C 8.5 °C 1011.4 hPa South 6.8 km/h 18.5 km/h 82 % 0 mm
07:03 11.4 °C 8.7 °C 1011.4 hPa SSE 7.2 km/h 14.8 km/h 83 % 0 mm
07:08 11.5 °C 8.7 °C 1011.4 hPa SSE 7.9 km/h 14.8 km/h 83 % 0 mm
07:13 11.6 °C 8.8 °C 1011.1 hPa SE 10 km/h 18.5 km/h 83 % 0 mm
07:18 11.6 °C 9 °C 1011.1 hPa SSE 8.5 km/h 14.8 km/h 84 % 0 mm
07:23 11.7 °C 9.1 °C 1011.1 hPa SSE 4.8 km/h 14.5 km/h 84 % 0 mm
07:28 11.7 °C 9.1 °C 1010.7 hPa SSE 5.3 km/h 7.4 km/h 84 % 0 mm
07:33 11.7 °C 9.1 °C 1010.7 hPa SSE 7.2 km/h 22.2 km/h 84 % 0 mm
07:38 11.8 °C 9.1 °C 1010.7 hPa SE 6.6 km/h 18.5 km/h 83 % 0 mm
07:43 11.9 °C 9.3 °C 1010.7 hPa SE 9.8 km/h 12.9 km/h 84 % 0 mm
07:49 11.9 °C 9.3 °C 1010.7 hPa SE 3.7 km/h 13 km/h 84 % 0 mm
07:54 12 °C 9.6 °C 1010.7 hPa ESE 5.1 km/h 12.9 km/h 85 % 0 mm
07:59 12 °C 9.7 °C 1011.4 hPa WSW 7.9 km/h 12.9 km/h 86 % 0 mm
08:04 11.9 °C 9.8 °C 1011.7 hPa NNW 19.5 km/h 35.2 km/h 87 % 1.02 mm
08:09 11.4 °C 9 °C 1011.4 hPa SW 8.4 km/h 24.1 km/h 85 % 5.84 mm
08:14 11.2 °C 9.1 °C 1011.4 hPa WSW 1.8 km/h 5.6 km/h 87 % 7.37 mm
08:19 11.1 °C 9.3 °C 1011.4 hPa SSW 2.9 km/h 11.1 km/h 89 % 8.38 mm
08:24 11 °C 9.3 °C 1011.4 hPa SW 0.5 km/h 3.7 km/h 89 % 9.4 mm
08:29 10.9 °C 9.4 °C 1011.4 hPa WSW 1.3 km/h 5.6 km/h 90 % 10.16 mm
08:34 10.8 °C 9.3 °C 1011.4 hPa Calm   1.9 km/h 90 % 10.67 mm
08:39 10.8 °C 9.4 °C 1011.1 hPa WSW 0.3 km/h 1.9 km/h 91 % 10.92 mm
08:44 10.8 °C 9.4 °C 1011.1 hPa Calm     91 % 11.18 mm
08:49 10.8 °C 9.4 °C 1011.1 hPa WSW 1.3 km/h 3.7 km/h 91 % 11.43 mm
08:54 10.8 °C 9.6 °C 1011.1 hPa WSW 2.7 km/h 4.8 km/h 92 % 11.68 mm
08:59 10.8 °C 9.7 °C 1010.7 hPa WSW 1.3 km/h 5.6 km/h 93 % 11.94 mm
09:04 10.8 °C 9.7 °C 1010.7 hPa WSW 0.2 km/h 1.9 km/h 93 % 9.14 mm
09:09 10.9 °C 9.9 °C 1010.4 hPa WSW 3.1 km/h 5.6 km/h 94 % 6.1 mm
09:14 10.9 °C 10 °C 1010.4 hPa WSW 0.6 km/h 3.7 km/h 94 % 4.83 mm
09:17 11 °C 10.1 °C 1010.4 hPa Calm     94 % 4.06 mm
09:22 11.2 °C 10.4 °C 1010.4 hPa WSW 0.6 km/h 3.2 km/h 95 % 3.56 mm
09:27 11.4 °C 10.6 °C 1010.4 hPa West 0.3 km/h 3.2 km/h 95 % 2.79 mm
09:38 12.1 °C 11.5 °C 1010 hPa WSW 4.8 km/h 11.1 km/h 96 % 2.03 mm
09:43 12.3 °C 11.7 °C 1010 hPa West 5 km/h 14.8 km/h 96 % 1.78 mm
09:48 12.3 °C 11.5 °C 1010 hPa WNW 0.8 km/h 11.1 km/h 95 % 1.78 mm
09:53 12.3 °C 11.6 °C 1010 hPa West 8 km/h 14.5 km/h 95 % 1.52 mm
09:58 12.3 °C 11.6 °C 1010.4 hPa WSW 3.4 km/h 14.5 km/h 95 % 1.52 mm
10:03 12.3 °C 11.4 °C 1010 hPa WSW 5.6 km/h 7.4 km/h 94 % 1.52 mm
10:08 12.3 °C 11.3 °C 1010 hPa SW 1.4 km/h 13 km/h 94 % 1.27 mm
10:13 12.2 °C 11.3 °C 1010 hPa WSW 2.9 km/h 5.6 km/h 94 % 1.02 mm
10:18 12.2 °C 11.3 °C 1010 hPa SW 2.4 km/h 7.4 km/h 94 % 1.27 mm
10:23 12.2 °C 11.3 °C 1009.7 hPa WSW 5.3 km/h 9.7 km/h 94 % 1.02 mm
10:28 12.4 °C 11.4 °C 1009.7 hPa SW 3.2 km/h 6.4 km/h 94 % 1.02 mm
10:33 12.5 °C 11.6 °C 1009.4 hPa WSW 6.8 km/h 13 km/h 94 % 0.76 mm
10:38 12.6 °C 11.4 °C 1009.4 hPa WSW 2.4 km/h 3.7 km/h 93 % 0.76 mm
10:48 12.8 °C 11.7 °C 1009.4 hPa South 0.5 km/h 9.3 km/h 93 % 0.76 mm
10:53 12.8 °C 11.7 °C 1009 hPa West 7.2 km/h 11.3 km/h 93 % 0.76 mm
10:58 12.8 °C 11.5 °C 1009.4 hPa SW 6.3 km/h 7.4 km/h 92 % 0.51 mm
11:03 12.7 °C 11.3 °C 1009 hPa SW 6.3 km/h 9.3 km/h 91 % 0.51 mm
11:08 12.7 °C 11.3 °C 1009 hPa WNW 0.3 km/h 5.6 km/h 91 % 0.51 mm
11:13 12.7 °C 11.1 °C 1008.7 hPa NW 4 km/h 6.4 km/h 90 % 0.76 mm
11:18 12.6 °C 11 °C 1008.7 hPa SW 6.6 km/h 14.8 km/h 90 % 0.51 mm
11:24 12.6 °C 10.8 °C 1008.7 hPa SW 8.9 km/h 11.3 km/h 89 % 0.51 mm
11:29 12.5 °C 10.7 °C 1008.7 hPa WSW 0.6 km/h 5.6 km/h 89 % 0.51 mm
11:34 12.5 °C 10.7 °C 1008.4 hPa WSW 3.7 km/h 7.4 km/h 89 % 0.51 mm
11:39 12.5 °C 10.7 °C 1008.4 hPa SW 6.6 km/h 11.1 km/h 89 % 0.76 mm
11:44 12.5 °C 10.6 °C 1008.4 hPa SW 5.6 km/h 9.3 km/h 88 % 0.51 mm
11:49 12.6 °C 10.6 °C 1008 hPa WNW 4.8 km/h 11.1 km/h 88 % 0.51 mm
11:54 12.6 °C 10.6 °C 1008 hPa WNW 5.8 km/h 13 km/h 88 % 0.51 mm
11:59 12.6 °C 10.2 °C 1008 hPa WNW 7.2 km/h 11.3 km/h 85 % 0.51 mm
12:04 12.6 °C 9.7 °C 1008 hPa West 5.5 km/h 11.1 km/h 83 % 0.51 mm
12:09 12.6 °C 9.7 °C 1008 hPa WSW 9 km/h 14.8 km/h 83 % 0.51 mm
12:14 12.6 °C 9.7 °C 1007.7 hPa WNW 6.4 km/h 9.3 km/h 83 % 0.51 mm
12:19 12.6 °C 9.7 °C 1007.3 hPa West 6 km/h 9.3 km/h 83 % 0.51 mm
12:24 12.6 °C 9.8 °C 1007.3 hPa WNW 6.8 km/h 11.1 km/h 83 % 0.51 mm
12:29 12.6 °C 9.8 °C 1007.3 hPa WNW 5.3 km/h 13 km/h 83 % 0.51 mm
12:34 12.7 °C 9.8 °C 1007.7 hPa West 2.9 km/h 11.3 km/h 83 % 0.51 mm
12:39 12.7 °C 9.8 °C 1007.3 hPa West 7.4 km/h 9.7 km/h 83 % 0.51 mm
12:44 12.6 °C 9.6 °C 1007.3 hPa WSW 5.1 km/h 8 km/h 82 % 0.51 mm
12:49 12.6 °C 9.6 °C 1007.3 hPa WNW 6.9 km/h 16.7 km/h 82 % 0.51 mm
12:54 12.6 °C 9.6 °C 1007 hPa West 7.9 km/h 13 km/h 82 % 0.51 mm
12:59 12.6 °C 9.6 °C 1007 hPa West 6.6 km/h 13 km/h 82 % 0.76 mm
13:04 12.6 °C 9.6 °C 1007 hPa SW 3.1 km/h 5.6 km/h 82 % 0.76 mm
13:10 12.7 °C 9.5 °C 1007.3 hPa WSW 10.8 km/h 20.4 km/h 81 % 0.51 mm
13:15 12.7 °C 9.5 °C 1007 hPa WSW 4.8 km/h 16.7 km/h 81 % 0.51 mm
13:17 12.7 °C 9.5 °C 1007 hPa WSW 6.1 km/h 11.1 km/h 81 % 0.51 mm
13:22 12.8 °C 9.6 °C 1007.3 hPa WNW 5.3 km/h 11.1 km/h 81 % 0.51 mm
13:27 12.8 °C 9.4 °C 1007 hPa SW 7.1 km/h 13 km/h 80 % 0.51 mm
13:32 12.9 °C 9.6 °C 1007 hPa SW 8.4 km/h 13 km/h 80 % 0.51 mm
13:37 12.9 °C 9.4 °C 1007 hPa West 3.1 km/h 13 km/h 79 % 0.25 mm
13:38 12.9 °C 9.4 °C 1007 hPa WNW 3.9 km/h 9.3 km/h 79 % 0.25 mm
13:43 12.9 °C 9.4 °C 1007 hPa South 4.8 km/h 13 km/h 79 % 0.25 mm
13:48 12.9 °C 9.2 °C 1007 hPa SW 7.9 km/h 14.8 km/h 78 % 0.25 mm
13:53 12.9 °C 9.4 °C 1006.7 hPa WSW 6.3 km/h 7.4 km/h 79 % 0.25 mm
13:58 12.9 °C 9.2 °C 1006.7 hPa SW 5.3 km/h 11.1 km/h 78 % 0 mm
14:03 13 °C 8.9 °C 1006.7 hPa SW 5.6 km/h 14.8 km/h 76 % 0 mm
14:08 13.1 °C 8.7 °C 1006.7 hPa WSW 11.1 km/h 18.5 km/h 75 % 0 mm
14:13 13.1 °C 8.4 °C 1006.3 hPa SW 9.8 km/h 25.9 km/h 73 % 0 mm
14:18 13.1 °C 8.3 °C 1006.3 hPa WNW 7.9 km/h 13 km/h 73 % 0 mm
14:23 13.1 °C 7.7 °C 1006.3 hPa SSW 8.2 km/h 9.7 km/h 70 % 0 mm
14:28 13 °C 7.2 °C 1006.3 hPa SW 10.3 km/h 14.8 km/h 68 % 0 mm
14:33 13 °C 7.2 °C 1006.7 hPa SW 7.7 km/h 18.5 km/h 68 % 0 mm
14:38 12.9 °C 6.9 °C 1006.7 hPa West 10.6 km/h 18.5 km/h 67 % 0 mm
14:43 12.9 °C 6.7 °C 1006.7 hPa SW 4.8 km/h 16.7 km/h 66 % 0 mm
14:48 12.8 °C 6.8 °C 1006.7 hPa SW 9.5 km/h 14.5 km/h 67 % 0 mm
14:53 12.8 °C 7.1 °C 1006.7 hPa West 4.7 km/h 16.7 km/h 68 % 0 mm
14:58 12.8 °C 7.1 °C 1006.7 hPa West 5.5 km/h 5.6 km/h 68 % 0 mm
15:03 12.8 °C 7.5 °C 1006.7 hPa West 4 km/h 7.4 km/h 70 % 0 mm
15:09 12.8 °C 7.4 °C 1006.7 hPa SSW 10.3 km/h 12.9 km/h 70 % 0 mm
15:14 12.7 °C 6.9 °C 1006.7 hPa SSW 10.3 km/h 29.6 km/h 68 % 0 mm
15:19 12.6 °C 6.8 °C 1007 hPa SW 12.9 km/h 27.8 km/h 68 % 0 mm
15:24 12.5 °C 6.6 °C 1007 hPa SW 12.4 km/h 24.1 km/h 67 % 0 mm
15:29 12.4 °C 6.7 °C 1007.3 hPa SW 12.9 km/h 31.5 km/h 68 % 0 mm
15:34 12.3 °C 6.2 °C 1007.3 hPa SW 14.2 km/h 25.9 km/h 66 % 0 mm
15:39 12.2 °C 6 °C 1007.3 hPa SW 10.6 km/h 22.5 km/h 66 % 0 mm
15:44 12.1 °C 5.9 °C 1007.3 hPa WSW 12.6 km/h 24.1 km/h 66 % 0 mm
15:49 11.9 °C 6 °C 1007.3 hPa West 6.6 km/h 18.5 km/h 67 % 0 mm
15:54 11.8 °C 5.6 °C 1007.3 hPa NW 9.2 km/h 22.2 km/h 66 % 0 mm
15:59 11.7 °C 5.5 °C 1007.3 hPa South 10.3 km/h 18.5 km/h 66 % 0 mm
16:04 11.6 °C 5.2 °C 1007.3 hPa West 5.3 km/h 18.5 km/h 65 % 0 mm
16:08 11.5 °C 5.2 °C 1007.3 hPa WSW 8.5 km/h 18.5 km/h 65 % 0 mm
16:13 11.4 °C 5.1 °C 1007.3 hPa SW 13.5 km/h 24.1 km/h 65 % 0 mm
16:18 11.4 °C 5.1 °C 1007.7 hPa WSW 14.3 km/h 22.2 km/h 65 % 0 mm
16:23 11.3 °C 5.2 °C 1007.7 hPa WNW 8.2 km/h 16.1 km/h 66 % 0 mm
16:28 11.3 °C 5.2 °C 1007.7 hPa NW 7.2 km/h 18.5 km/h 66 % 0 mm
16:33 11.2 °C 5.1 °C 1008 hPa WSW 9.8 km/h 24.1 km/h 66 % 0 mm
16:38 11.2 °C 5.3 °C 1008 hPa WSW 12.2 km/h 24.1 km/h 67 % 0 mm
16:43 11.1 °C 4.9 °C 1008.4 hPa West 15.9 km/h 20.4 km/h 66 % 0 mm
16:48 10.9 °C 4.8 °C 1008.4 hPa WSW 21.4 km/h 35.2 km/h 66 % 0 mm
16:53 10.8 °C 4.7 °C 1008.7 hPa West 11.1 km/h 31.5 km/h 66 % 0 mm
16:58 10.7 °C 4.6 °C 1008.7 hPa WSW 14.3 km/h 22.2 km/h 66 % 0 mm
17:03 10.5 °C 4.6 °C 1008.7 hPa WNW 9.5 km/h 20.4 km/h 67 % 0 mm
17:08 10.3 °C 4.1 °C 1009 hPa WNW 13.5 km/h 31.5 km/h 65 % 0 mm
17:13 10.2 °C 3.9 °C 1009 hPa West 15.1 km/h 27.8 km/h 65 % 0 mm
17:18 10.1 °C 4.1 °C 1009 hPa West 15.1 km/h 17.7 km/h 66 % 0 mm
17:24 10.1 °C 4.2 °C 1009 hPa WSW 13.8 km/h 27.8 km/h 67 % 0 mm
17:28 10 °C 3.9 °C 1009 hPa NW 11.9 km/h 18.5 km/h 66 % 0 mm
17:33 9.9 °C 3.9 °C 1009 hPa North 11.1 km/h 29.6 km/h 66 % 0 mm
17:38 9.9 °C 4.3 °C 1009 hPa West 12.7 km/h 22.5 km/h 68 % 0 mm
17:43 9.8 °C 4.2 °C 1009.4 hPa WNW 7.6 km/h 14.8 km/h 68 % 0 mm
17:48 9.7 °C 4.1 °C 1009.4 hPa WNW 10.3 km/h 20.4 km/h 68 % 0 mm
17:53 9.7 °C 4.3 °C 1009.4 hPa WSW 12.6 km/h 20.9 km/h 69 % 0 mm
17:58 9.6 °C 4.2 °C 1009.4 hPa WNW 14.3 km/h 18.5 km/h 69 % 0 mm
18:08 9.6 °C 4.3 °C 1009.4 hPa West 3.2 km/h 9.3 km/h 70 % 0 mm
18:14 9.6 °C 4.3 °C 1009.4 hPa West 10.8 km/h 22.2 km/h 70 % 0 mm
18:19 9.4 °C 4.1 °C 1009.4 hPa West 9.3 km/h 16.7 km/h 69 % 0 mm
18:24 9.4 °C 4.1 °C 1009.7 hPa WNW 8.9 km/h 14.8 km/h 69 % 0 mm
18:29 9.4 °C 4 °C 1009.7 hPa West 5.1 km/h 16.7 km/h 69 % 0 mm
18:34 9.3 °C 3.9 °C 1009.7 hPa West 15.1 km/h 35.4 km/h 69 % 0 mm
18:39 9.3 °C 3.7 °C 1009.7 hPa WSW 9.8 km/h 16.7 km/h 68 % 0 mm
18:44 9.3 °C 3.9 °C 1009.7 hPa West 7.1 km/h 16.7 km/h 69 % 0 mm
18:49 9.3 °C 3.9 °C 1009.7 hPa WNW 12.9 km/h 27.4 km/h 69 % 0 mm
18:54 9.3 °C 3.9 °C 1009.7 hPa SW 11.1 km/h 18.5 km/h 69 % 0 mm
18:59 9.2 °C 3.8 °C 1009.7 hPa West 10.8 km/h 18.5 km/h 69 % 0 mm
19:04 9.2 °C 3.6 °C 1010 hPa West 9.5 km/h 14.8 km/h 68 % 0 mm
19:09 9.2 °C 3.6 °C 1010 hPa West 9.5 km/h 16.7 km/h 68 % 0 mm
19:14 9.2 °C 3.6 °C 1010 hPa WNW 3.5 km/h 11.3 km/h 68 % 0 mm
19:19 9.2 °C 3.6 °C 1010 hPa WSW 7.7 km/h 14.8 km/h 68 % 0 mm
19:24 9.2 °C 3.6 °C 1010 hPa WNW 7.7 km/h 18.5 km/h 68 % 0 mm
19:29 9.2 °C 3.6 °C 1010.4 hPa WSW 8.7 km/h 13 km/h 68 % 0 mm
19:34 9.2 °C 3.6 °C 1010 hPa NW 11.4 km/h 20.4 km/h 68 % 0 mm
19:39 9.2 °C 3.6 °C 1010 hPa West 11.7 km/h 22.5 km/h 68 % 0 mm
19:44 9.2 °C 3.6 °C 1010.4 hPa WSW 10.3 km/h 20.4 km/h 68 % 0 mm
19:49 9.2 °C 3.6 °C 1011.4 hPa WNW 7.1 km/h 18.5 km/h 68 % 0 mm
19:54 9.2 °C 3.4 °C 1011.4 hPa WNW 14.3 km/h 31.5 km/h 67 % 0 mm
19:59 9.2 °C 3.6 °C 1010.4 hPa WNW 15.6 km/h 16.7 km/h 68 % 0 mm
20:00 9.2 °C 3.6 °C 1010.4 hPa WNW 15.6 km/h 16.7 km/h 68 % 0 mm
20:05 9.2 °C 3.3 °C 1010 hPa WSW 13.2 km/h 24.1 km/h 67 % 0 mm
20:10 9.2 °C 3.3 °C 1010 hPa WSW 4.8 km/h 16.7 km/h 67 % 0 mm
20:15 9.2 °C 3.6 °C 1010.4 hPa WNW 11.9 km/h 16.7 km/h 68 % 0 mm
20:20 9.1 °C 3.3 °C 1010 hPa WSW 11.7 km/h 20.9 km/h 67 % 0 mm
20:25 9.1 °C 3.3 °C 1010.4 hPa West 10.1 km/h 14.5 km/h 67 % 0 mm
20:30 9.1 °C 3.4 °C 1010.4 hPa WSW 5.6 km/h 14.8 km/h 68 % 0 mm
20:35 9.1 °C 3.4 °C 1010.4 hPa NW 11.1 km/h 18.5 km/h 68 % 0 mm
20:40 9 °C 3.2 °C 1010.4 hPa West 6.8 km/h 16.7 km/h 67 % 0 mm
20:45 8.9 °C 3.3 °C 1010.4 hPa West 11.6 km/h 24.1 km/h 68 % 0 mm
20:50 8.9 °C 3.3 °C 1010.4 hPa SW 10.9 km/h 24.1 km/h 68 % 0 mm
20:55 8.9 °C 3.3 °C 1010.4 hPa West 11.6 km/h 22.2 km/h 68 % 0 mm
21:00 8.8 °C 3.2 °C 1010.4 hPa SW 12.2 km/h 18.5 km/h 68 % 0 mm
21:05 8.8 °C 3.4 °C 1010.7 hPa WNW 8.5 km/h 18.5 km/h 69 % 0 mm
21:10 8.8 °C 3.4 °C 1010.7 hPa WSW 11.1 km/h 20.4 km/h 69 % 0 mm
21:15 8.7 °C 3.3 °C 1010.7 hPa West 13.2 km/h 22.2 km/h 69 % 0 mm
21:20 8.7 °C 3.3 °C 1010.7 hPa West 6.6 km/h 16.7 km/h 69 % 0 mm
21:25 8.7 °C 3.6 °C 1010.7 hPa WSW 9.8 km/h 22.5 km/h 70 % 0 mm
21:30 8.7 °C 3.5 °C 1011.1 hPa WSW 11.6 km/h 20.4 km/h 70 % 0 mm
21:35 8.7 °C 3.5 °C 1010.7 hPa West 10.6 km/h 16.7 km/h 70 % 0 mm
21:40 8.7 °C 3.5 °C 1011.1 hPa West 14.8 km/h 29.6 km/h 70 % 0 mm
21:45 8.7 °C 3.5 °C 1011.1 hPa WNW 8.7 km/h 14.5 km/h 70 % 0 mm
21:50 8.7 °C 3.5 °C 1010.7 hPa NW 6.9 km/h 18.5 km/h 70 % 0 mm
21:55 8.7 °C 3.5 °C 1010.7 hPa SSW 6.9 km/h 18.5 km/h 70 % 0 mm
22:00 8.7 °C 3.7 °C 1010.7 hPa WSW 14.3 km/h 29.6 km/h 71 % 0 mm
22:05 8.7 °C 3.9 °C 1011.1 hPa West 7.6 km/h 13 km/h 72 % 0 mm
22:10 8.6 °C 3.8 °C 1011.1 hPa West 4 km/h 8 km/h 72 % 0 mm
22:19 8.4 °C 3.1 °C 1011.1 hPa WSW 11.4 km/h 25.9 km/h 69 % 0 mm
22:22 8.4 °C 3.3 °C 1002.9 hPa West 11.9 km/h 22.2 km/h 70 % 0 mm
22:23 8.4 °C 3.3 °C 1002.9 hPa West 10 km/h 16.7 km/h 70 % 0 mm
22:26 8.4 °C 3.2 °C 1011.1 hPa NW 13.5 km/h 27.8 km/h 70 % 0 mm
22:30 8.4 °C 3 °C 1011.1 hPa NW 7.9 km/h 14.8 km/h 69 % 0 mm
22:34 8.4 °C 3.2 °C 1010.7 hPa West 3.2 km/h 7.4 km/h 70 % 0 mm
22:39 8.3 °C 3.2 °C 1011.1 hPa West 11.7 km/h 18.5 km/h 70 % 0 mm
22:44 8.3 °C 3.4 °C 1011.1 hPa West 8.9 km/h 20.9 km/h 71 % 0 mm
22:49 8.2 °C 2.9 °C 1011.1 hPa WSW 15.9 km/h 31.5 km/h 69 % 0 mm
22:54 8.2 °C 3 °C 1011.1 hPa WNW 10.3 km/h 16.7 km/h 70 % 0 mm
22:59 8.2 °C 3 °C 1011.1 hPa WNW 6.3 km/h 18.5 km/h 70 % 0 mm
23:04 8.1 °C 2.9 °C 1010.7 hPa NW 11.3 km/h 24.1 km/h 70 % 0 mm
23:09 8.1 °C 2.9 °C 1010.7 hPa WNW 10.8 km/h 25.7 km/h 70 % 0 mm
23:14 8 °C 2.8 °C 1010.7 hPa West 4.2 km/h 12.9 km/h 70 % 0 mm
23:16 8 °C 2.8 °C 1010.7 hPa WNW 7.9 km/h 17.7 km/h 70 % 0 mm
23:26 7.9 °C 2.9 °C 1010.7 hPa West 10 km/h 14.8 km/h 71 % 0 mm
23:31 7.8 °C 2.9 °C 1010.7 hPa West 9.7 km/h 35.4 km/h 71 % 0 mm
23:36 7.8 °C 2.8 °C 1010.7 hPa West 14.5 km/h 35.4 km/h 71 % 0 mm
23:41 7.8 °C 3.1 °C 1010.7 hPa West 9.7 km/h 29 km/h 72 % 0 mm
23:46 7.7 °C 3 °C 1011.1 hPa WNW 12.9 km/h 24.1 km/h 72 % 0 mm
23:51 7.7 °C 2.8 °C 1011.1 hPa West 12.9 km/h 33.8 km/h 71 % 0 mm
23:56 7.7 °C 2.9 °C 1011.1 hPa West 15.3 km/h 29.6 km/h 72 % 0 mm
Crab Meadow Weather
Compliments of Weather Underground - 3 mb

Script developed by  Jim McMurry - jmcmurry@mwt.net Adapted for the template by  Wim van der Kuil - Leuven-Template.eu

Weather Terms: Wind Chill Warning - Extreme wind chills of -30°F or colder.